Location: Dallas
(32.7830°N, 96.8000°W)
Time: 03:20:18
(UTC-05:00)

Envisat - Visible Passes

Search period start: 23 June 2018 00:00
Search period end: 03 July 2018 00:00
Orbit: 764 x 766 km, 98.2° (Epoch: 22 June)

Date Brightness Start Highest point End Pass type
(mag) Time Alt. Az. Time Alt. Az. Time Alt. Az.
23 Jun 5.3 21:48:19 10° SW 21:52:07 21° W 21:55:57 10° NW visible
24 Jun 3.9 21:10:19 10° S 21:15:14 52° W 21:20:12 10° NNW visible
25 Jun 5.9 22:16:39 10° WSW 22:17:54 11° W 22:19:09 10° WNW visible
26 Jun 4.9 21:36:37 10° SSW 21:40:54 27° W 21:45:12 10° NW visible
27 Jun 3.4 20:59:02 10° S 21:04:04 68° WSW 21:09:08 10° NNW visible
28 Jun 5.6 22:03:53 10° SW 22:06:38 15° W 22:09:24 10° WNW visible
29 Jun 4.5 21:25:04 10° SSW 21:29:41 35° W 21:34:20 10° NNW visible
01 Jul 5.5 21:51:50 10° SW 21:55:24 19° W 21:58:59 10° NW visible
02 Jul 4.1 21:13:39 10° S 21:18:30 46° W 21:23:22 10° NNW visible
